Location: Poughquag
(41.6090°N, 73.6820°W)
Time: 03:23:55
(UTC-04:00)

S-56A Canister/Altair - Pass Details

Date: 01 June 2020
Orbit: 633 x 2499 km, 38.9° (Epoch: 06 July)

Event Time Altitude Azimuth Distance (km) Brightness Sun altitude
Rises 10:46:45 0° 281° (WNW) 4,473 11.1 57.3°
Reaches altitude 10° 10:49:36 10° 274° (W) 3,732 10.8 57.7°
Maximum altitude 10:58:47 40° 209° (SSW) 2,671 10.9 59.2°
Drops below altitude 10° 11:11:10 10° 147° (SSE) 4,995 12.3 61.2°
Sets 11:15:42 0° 141° (SE) 6,115 12.5 61.9°
